Location: Kuffner-Sternwarte
(48.2130°N, 16.2960°E)
Time: 22:04:44
(UTC+01:00)

ARIANE 6 FM1 Upper Stage - Visible Passes

Search period start: 16 January 2026 00:00
Search period end: 26 January 2026 00:00
Orbit: 522 x 610 km, 62.0° (Epoch: 16 January)

Date Brightness Start Highest point End Pass type
(mag) Time Alt. Az. Time Alt. Az. Time Alt. Az.
16 Jan 5.1 04:38:59 15° SE 04:38:59 15° SE 04:39:45 10° SE visible
20 Jan 4.7 18:35:48 10° SSE 18:36:47 14° SSE 18:36:47 14° SSE visible
21 Jan 4.0 18:35:21 10° S 18:37:46 25° SSE 18:37:46 25° SSE visible
22 Jan 3.1 18:35:08 10° SSW 18:38:40 40° SE 18:38:40 40° SE visible
22 Jan 5.7 20:14:22 10° W 20:14:44 12° W 20:14:44 12° W visible
23 Jan 2.6 18:35:04 10° SSW 18:39:04 58° SE 18:39:29 55° E visible
23 Jan 5.7 20:14:55 10° W 20:15:31 13° W 20:15:31 13° W visible
24 Jan 2.4 18:35:09 10° SW 18:39:14 83° SE 18:40:12 50° NE visible
24 Jan 5.7 20:15:33 10° W 20:16:14 13° WNW 20:16:14 13° WNW visible
25 Jan 2.7 18:35:21 10° SW 18:39:25 70° NW 18:40:50 38° NNE visible
25 Jan 5.7 20:16:15 10° WNW 20:16:52 12° WNW 20:16:52 12° WNW visible
